Weather History for Silver Bay, MN

Change the Weather History Date:

Thursday, March 28, 2013

  Actual Average Record
Temperature  
Mean Temperature 27 °F -  
Max Temperature 48 °F 36 °F 60 °F (1998)
Min Temperature 6 °F 18 °F -2 °F (2011)
Degree Days  
Heating Degree Days 38    
Moisture  
Dew Point 8 °F    
Average Humidity 52    
Maximum Humidity 85    
Minimum Humidity 17    
Precipitation  
Precipitation 0.00 in - - ()
Sea Level Pressure  
Sea Level Pressure 30.27 in    
Wind  
Wind Speed 1 mph (South)    
Max Wind Speed 10 mph    
Max Gust Speed -    
Visibility 10 miles    
Events      
Averages and records for this station are not official NWS values.
T = Trace of Precipitation, MM = Missing Value Source: NWS Daily Summary

Daily Weather History Graph

Daily Weather History Graph

Search for Another Location

Airport:

Trip Planner

Search our weather history database for the weather conditions in past years. The results will help you decide how hot, cold, wet, or windy it might be!

Date:

Astronomy

Mar. 28, 2013 Rise Set
Actual Time 6:52 AM CDT 7:30 PM CDT
Civil Twilight 6:21 AM CDT 8:00 PM CDT
Nautical Twilight 5:44 AM CDT 8:37 PM CDT
Astronomical Twilight 5:06 AM CDT 9:15 PM CDT
Moon 9:32 PM CDT (3/28) 7:12 AM CDT (3/28)
Length of Visible Light 13h 39m
Length of Day
12h 38m
Full, 98% of the Moon is Illuminated
Mar 28
Full
Apr 2
Last Quarter
Apr 10
New
Apr 18
First Quarter
Apr 25
Full

Hourly Weather History & Observations

Time (CDT) Temp. Windchill Dew Point Humidity Pressure Visibility Wind Dir Wind Speed Gust Speed Precip Events Conditions
12:13 AM 15.8 °F - 8.6 °F 73% 30.28 in 10.0 mi Calm Calm - N/A   Clear
12:33 AM 15.8 °F - 8.6 °F 73% 30.28 in 10.0 mi Calm Calm - N/A   Clear
12:53 AM 14.0 °F - 8.6 °F 79% 30.28 in 10.0 mi Calm Calm - N/A   Clear
1:13 AM 12.2 °F - 6.8 °F 79% 30.28 in 10.0 mi Calm Calm - N/A   Clear
1:33 AM 12.2 °F - 8.6 °F 85% 30.28 in 10.0 mi Calm Calm - N/A   Clear
1:53 AM 14.0 °F - 8.6 °F 79% 30.28 in 10.0 mi Calm Calm - N/A   Clear
2:13 AM 12.2 °F - 6.8 °F 79% 30.28 in 10.0 mi Calm Calm - N/A   Clear
2:33 AM 14.0 °F - 8.6 °F 79% 30.28 in 10.0 mi Calm Calm - N/A   Clear
2:53 AM 14.0 °F - 6.8 °F 73% 30.28 in 10.0 mi Calm Calm - N/A   Clear
3:13 AM 12.2 °F - 6.8 °F 79% 30.28 in 10.0 mi Calm Calm - N/A   Clear
3:33 AM 10.4 °F - 6.8 °F 85% 30.28 in 10.0 mi Calm Calm - N/A   Clear
3:53 AM 10.4 °F - 6.8 °F 85% 30.28 in 10.0 mi Calm Calm - N/A   Clear
4:13 AM 10.4 °F - 5.0 °F 79% 30.28 in 10.0 mi Calm Calm - N/A   Clear
4:33 AM 8.6 °F - 3.2 °F 79% 30.28 in 10.0 mi Calm Calm - N/A   Clear
4:53 AM 8.6 °F - 3.2 °F 79% 30.28 in 10.0 mi Calm Calm - N/A   Clear
5:13 AM 8.6 °F - 3.2 °F 79% 30.28 in 10.0 mi Calm Calm - N/A   Clear
5:33 AM 8.6 °F - 5.0 °F 85% 30.28 in 10.0 mi Calm Calm - N/A   Clear
5:53 AM 6.8 °F - 1.4 °F 79% 30.28 in 10.0 mi Calm Calm - N/A   Clear
6:13 AM 6.8 °F - 1.4 °F 79% 30.29 in 10.0 mi Calm Calm - N/A   Clear
6:33 AM 8.6 °F - 3.2 °F 79% 30.29 in 10.0 mi Calm Calm - N/A   Clear
6:53 AM 8.6 °F - 3.2 °F 79% 30.29 in 10.0 mi Calm Calm - N/A   Clear
7:14 AM 8.6 °F - 5.0 °F 85% 30.29 in 10.0 mi Calm Calm - N/A   Clear
7:33 AM 12.2 °F - 6.8 °F 79% 30.30 in 10.0 mi Calm Calm - N/A   Clear
7:53 AM 15.8 °F - 10.4 °F 79% 30.30 in 10.0 mi Calm Calm - N/A   Clear
8:13 AM 21.2 °F - 14.0 °F 74% 30.30 in 10.0 mi Calm Calm - N/A   Clear
8:33 AM 26.6 °F - 17.6 °F 69% 30.29 in 10.0 mi Calm Calm - N/A   Clear
8:53 AM 32.0 °F - 15.8 °F 51% 30.29 in 10.0 mi Calm Calm - N/A   Clear
9:13 AM 37.4 °F - 14.0 °F 38% 30.29 in 10.0 mi Calm Calm - N/A   Clear
9:33 AM 42.8 °F - 12.2 °F 29% 30.29 in 10.0 mi Calm Calm - N/A   Clear
9:53 AM 44.6 °F - 10.4 °F 25% 30.29 in 10.0 mi Calm Calm - N/A   Clear
10:13 AM 48.2 °F - 6.8 °F 19% 30.29 in 10.0 mi Calm Calm - N/A   Clear
10:53 AM 48.2 °F - 5.0 °F 17% 30.29 in 10.0 mi Calm Calm - N/A   Clear
11:13 AM 48.2 °F - 6.8 °F 19% 30.29 in 10.0 mi Calm Calm - N/A   Clear
11:33 AM 46.4 °F - 8.6 °F 22% 30.29 in 10.0 mi Calm Calm - N/A   Clear
11:53 AM 44.6 °F 39.7 °F 6.8 °F 21% 30.29 in 10.0 mi SSE 9.2 mph - N/A   Unknown
12:13 PM 42.8 °F 38.6 °F 8.6 °F 25% 30.29 in 10.0 mi SSE 6.9 mph - N/A   Clear
12:33 PM 42.8 °F 39.3 °F 8.6 °F 25% 30.29 in 10.0 mi SE 5.8 mph - N/A   Clear
12:53 PM 42.8 °F 38.0 °F 6.8 °F 23% 30.28 in 10.0 mi South 8.1 mph - N/A   Clear
1:13 PM 42.8 °F 37.5 °F 6.8 °F 23% 30.28 in 10.0 mi SE 9.2 mph - N/A   Clear
1:33 PM 42.8 °F 38.6 °F 6.8 °F 23% 30.28 in 10.0 mi SSE 6.9 mph - N/A   Clear
1:53 PM 42.8 °F 38.0 °F 8.6 °F 25% 30.27 in 10.0 mi SSW 8.1 mph - N/A   Clear
2:13 PM 42.8 °F 37.0 °F 6.8 °F 23% 30.27 in 10.0 mi South 10.4 mph - N/A   Clear
2:33 PM 42.8 °F - 8.6 °F 25% 30.26 in 10.0 mi Calm Calm - N/A   Clear
2:53 PM 42.8 °F 37.5 °F 8.6 °F 25% 30.26 in 10.0 mi SSW 9.2 mph - N/A   Clear
3:13 PM 42.8 °F 38.0 °F 6.8 °F 23% 30.26 in 10.0 mi SSE 8.1 mph - N/A   Clear
3:33 PM 42.8 °F 37.0 °F 6.8 °F 23% 30.25 in 10.0 mi South 10.4 mph - N/A   Clear
3:53 PM 42.8 °F 37.5 °F 6.8 °F 23% 30.25 in 10.0 mi South 9.2 mph - N/A   Clear
4:13 PM 42.8 °F 38.6 °F 8.6 °F 25% 30.24 in 10.0 mi South 6.9 mph - N/A   Clear
4:33 PM 42.8 °F 37.5 °F 8.6 °F 25% 30.24 in 10.0 mi SSW 9.2 mph - N/A   Clear
4:53 PM 41.0 °F 35.2 °F 8.6 °F 26% 30.24 in 10.0 mi SSW 9.2 mph - N/A   Clear
5:13 PM 41.0 °F 35.2 °F 8.6 °F 26% 30.24 in 10.0 mi South 9.2 mph - N/A   Clear
5:33 PM 41.0 °F 36.4 °F 8.6 °F 26% 30.23 in 10.0 mi South 6.9 mph - N/A   Clear
5:53 PM 41.0 °F 36.4 °F 8.6 °F 26% 30.23 in 10.0 mi SSW 6.9 mph - N/A   Clear
6:13 PM 42.8 °F - 8.6 °F 25% 30.23 in 10.0 mi Calm Calm - N/A   Clear
6:33 PM 39.2 °F 35.0 °F 8.6 °F 28% 30.23 in 10.0 mi SSW 5.8 mph - N/A   Clear
6:53 PM 37.4 °F - 10.4 °F 33% 30.23 in 10.0 mi Calm Calm - N/A   Clear
7:13 PM 33.8 °F - 10.4 °F 38% 30.23 in 10.0 mi Calm Calm - N/A   Clear
7:33 PM 32.0 °F - 8.6 °F 38% 30.23 in 10.0 mi Calm Calm - N/A   Clear
7:53 PM 30.2 °F - 10.4 °F 44% 30.24 in 10.0 mi Calm Calm - N/A   Clear
8:13 PM 28.4 °F - 10.4 °F 47% 30.24 in 10.0 mi Calm Calm - N/A   Clear
8:34 PM 26.6 °F - 12.2 °F 55% 30.24 in 10.0 mi Calm Calm - N/A   Clear
8:53 PM 24.8 °F - 12.2 °F 59% 30.25 in 10.0 mi Calm Calm - N/A   Clear
9:13 PM 23.0 °F - 12.2 °F 63% 30.25 in 10.0 mi Calm Calm - N/A   Clear
9:33 PM 23.0 °F - 10.4 °F 59% 30.25 in 10.0 mi Calm Calm - N/A   Clear
9:53 PM 21.2 °F - 10.4 °F 63% 30.25 in 10.0 mi Calm Calm - N/A   Clear
10:13 PM 21.2 °F - 10.4 °F 63% 30.25 in 10.0 mi Calm Calm - N/A   Clear
10:33 PM 21.2 °F - 10.4 °F 63% 30.25 in 10.0 mi Calm Calm - N/A   Clear
10:53 PM 19.4 °F - 10.4 °F 68% 30.25 in 10.0 mi Calm Calm - N/A   Clear
11:13 PM 19.4 °F - 10.4 °F 68% 30.24 in 10.0 mi Calm Calm - N/A   Clear
11:34 PM 17.6 °F - 10.4 °F 73% 30.24 in 10.0 mi Calm Calm - N/A   Clear
11:53 PM 17.6 °F - 10.4 °F 73% 30.24 in 10.0 mi Calm Calm - N/A   Clear